Lexington Weather

Lexington, Massachusetts, USA

42°F
11/27/2020 3:42am 
  • Lexington Conditions: Fog, Overcast
  • Temperature: 41.9°F / 5.5°CWarmer 2.3°F than last hour.
  • Dew Point: 41.2°FIncreased 2.4°Fsince last hour.
  • Relative Humidity: 97
  • Wind: Calm, 10-min avg: Calm, gust: None
  • Barometer: 29.97 in Steady
  • Visibility: ½ mile
  • Rain Today: 0.00 in
  •   
Southeast Middlesex County - Special Weather Statement - Special Weather Statement
 - SEE ALL NEARBY ALERTS -

Regional Weather Roundup
for Boston / Norton, MA

        
000
ASUS41 KBOX 220604
RWRBOX

REGIONAL WEATHER ROUNDUP
NATIONAL WEATHER SERVICE BOSTON/NORTON MA
100 AM EST SUN NOV 22 2020

NOTE:  "FAIR" INDICATES FEW OR NO CLOUDS BELOW 12,000 FEET WITH NO 
SIGNIFICANT WEATHER AND/OR OBSTRUCTIONS TO VISIBILITY.

MAZALL-220700-
EASTERN MASSACHUSETTS
  
CITY           SKY/WX    TMP DP  RH WIND       PRES   REMARKS
BOSTON         PTCLDY    41  26  55 N9        30.50R                  
6HR MIN TEMP:  41; 6HR MAX TEMP:  51;                                

BEVERLY        CLEAR     37  27  67 N5        30.49R                  
LAWRENCE       CLEAR     34  26  72 N5        30.51S WCI  30          
BEDFORD        CLEAR     37  27  67 N3        30.48S                  
BLUE HILL        N/A     39  26  59 N9        30.45R                  
NORWOOD        CLEAR     41  26  55 N5        30.49R                  
MARSHFIELD     PTCLDY    46  32  57 VRB6G14   30.47R                  
PLYMOUTH       PTCLDY    45  33  63 NE12      30.46R                  
TAUNTON        PTCLDY    46  29  51 VRB6      30.47R                  
NEW BEDFORD    CLOUDY    48  34  58 N7        30.45R                  
$$

MAZALL-220700-
CAPE COD AND THE ISLANDS
  
CITY           SKY/WX    TMP DP  RH WIND       PRES   REMARKS
FALMOUTH       CLOUDY    46  36  66 NE14G23   30.45R                  
HYANNIS        CLOUDY    48  36  63 NE12      30.44R                  
CHATHAM        CLOUDY    48  34  58 NE10G16   30.46R                  
PROVINCETOWN   CLEAR     46  34  62 NE14G23   30.48R                  
NANTUCKET      CLOUDY    50  39  66 NE18      30.43R                  
MARTHAS VNYRD  CLOUDY    49  37  63 NE13      30.44R                  
$$
 
MAZALL-220700-
CENTRAL AND WESTERN MASSACHUSETTS
  
CITY           SKY/WX    TMP DP  RH WIND       PRES   REMARKS
WORCESTER      CLEAR     36  25  64 NE3       30.46R                  
6HR MIN TEMP:  36; 6HR MAX TEMP:  47;                                

FITCHBURG      CLEAR     32  26  78 CALM      30.50R                  
ORANGE         CLEAR     29  27  92 CALM      30.49R                  
SPRINGFIELD    CLEAR     30  26  84 NE3       30.47R                  
WESTFIELD      CLEAR     33  28  81 CALM      30.48R                  
NORTH ADAMS    CLEAR     27  23  85 CALM      30.49R                  
PITTSFIELD     CLEAR     31  26  82 W3        30.45R                  
$$
 
RIZALL-220700-
RHODE ISLAND
  
CITY           SKY/WX    TMP DP  RH WIND       PRES   REMARKS
PROVIDENCE     CLOUDY    46  29  51 N13       30.47R                  
6HR MIN TEMP:  46; 6HR MAX TEMP:  54;                                

NEWPORT        CLOUDY    47  34  60 NE13      30.44R                  
BLOCK ISLAND   CLOUDY    49  34  56 NE15G23   30.44R                  
SMITHFIELD     CLEAR     40  28  62 NE9       30.47R                  
WESTERLY       CLOUDY    49  31  49 N3        30.44R                  
$$
 
CTZALL-220700-
CONNECTICUT
  
CITY           SKY/WX    TMP DP  RH WIND       PRES   REMARKS
BRADLEY INTL   PTCLDY    39  28  64 N6        30.48R                  
6HR MIN TEMP:  39; 6HR MAX TEMP:  49;                                

HARTFORD       CLEAR     43  28  55 N7        30.48R                  
BRIDGEPORT     CLOUDY    46  30  53 N10       30.46S                  
DANBURY        PTCLDY    40  27  59 N10       30.46F                  
GROTON         CLOUDY    49  31  49 N7        30.44R                  
NEW HAVEN      CLOUDY    46  31  55 N12       30.46R                  
CHESTER        CLOUDY    45  30  57 N7G14     30.45R                  
MERIDEN        PTCLDY    42  28  57 N6        30.47R                  
WILLIMANTIC    PTCLDY    42  30  62 N6        30.46R                  
OXFORD         PTCLDY    36  29  75 N8        30.45S WCI  30          
$$

MEZ002-015-021-024-NHZ003-005-008-011-012-014-VTZ005-008-220700-
NORTHERN NEW ENGLAND
  
CITY           SKY/WX    TMP DP  RH WIND       PRES   REMARKS
PORTLAND ME    CLEAR     30  25  81 CALM      30.51R                  
6HR MIN TEMP:  30; 6HR MAX TEMP:  43;                                

BANGOR ME      CLEAR     30  17  58 NW8       30.51R WCI  22          
CONCORD NH     CLEAR     28  22  78 CALM      30.49R                  
MANCHESTER NH  CLEAR     35  25  66 CALM      30.48R                  
NASHUA NH      CLEAR     32  28  85 NW3       30.51R                  
PORTSMOUTH NH  PTCLDY    35  22  58 CALM      30.49                   
JAFFREY NH     CLEAR     28  24  85 CALM      30.46S                  
KEENE NH       CLEAR     26  24  92 CALM      30.49S                  
BURLINGTON VT  CLOUDY    34  21  59 NW5       30.52S WCI  30          
MT. WASHINGTON NOT AVBL                                               
$$

NYZ052-076-220700-
EASTERN NEW YORK
  
CITY           SKY/WX    TMP DP  RH WIND       PRES   REMARKS
ALBANY         PTCLDY    33  27  78 NW5       30.50S WCI  29          
6HR MIN TEMP:  33; 6HR MAX TEMP:  39;                                

NEW YORK CITY  MOCLDY    49  32  52 NE13      30.44S                  
6HR MIN TEMP:  49; 6HR MAX TEMP:  57;                                

$$
 
ANZALL-220700-
MARINE OBSERVATIONS
  
STATION/POSITION TIME  TEMP    WIND        PRES    VSBY  WAVE
                       AIR SEA DIR/SP/G                  HT/PER
                 (UTC) (F)     (DEG/KT/KT) (MB)    (MI)  (FT/S)
BOSTON BUOY      0540   46 51   10/ 14/ 17 1032.5R
BUZZARDS BAY     0500           30/ 21/ 23 1031.2R
NANTUCKET SOUND  0540      52   30/ 17/ 21   N/A
MASS BAY-STELLWA NOT AVBL
ISLE OF SHOALS   0500   42      10/ 10/ 12 1032.0R
S OF BLOCK IS    0526      58                N/A           4/ 4
$$

......................KEY.........................
  SKY/WX - SKY CONDITION/PRESENT WEATHER
  TMP    - TEMPERATURE IN FAHRENHEIT
  DWPT   - DEWPOINT IN FAHRENHEIT
  RH     - RELATIVE HUMIDITY IN PERCENT
  WIND   - DIRECTION AND SPEED IN MPH
  PRES   - MEAN SEA LEVEL PRESSURE IN INCHES OF HG
  WCI    - WIND CHILL INDEX
  VSB    - VISIBILITY IN MILES
  HX     - HEAT INDEX
  TC     - TEMPERATURE IN CELSIUS
  VRB    - VARIABLE WIND DIRECTION
  N/A    - NOT AVAILABLE
  
      

Other recent Regional Weather Roundups

Fri Nov 27, 12:04am

Thu Nov 26, 11:04pm

Thu Nov 26, 10:04pm

Thu Nov 26, 9:04pm

Thu Nov 26, 8:04pm

Thu Nov 26, 7:04pm

Thu Nov 26, 6:04pm

Thu Nov 26, 5:04pm

Thu Nov 26, 4:04pm

Thu Nov 26, 2:04pm

Thu Nov 26, 1:04pm

Thu Nov 26, 12:04pm

Thu Nov 26, 11:04am

Thu Nov 26, 10:04am

Thu Nov 26, 9:04am

Thu Nov 26, 8:04am

Thu Nov 26, 7:04am

Thu Nov 26, 6:04am

Thu Nov 26, 5:04am

Thu Nov 26, 4:04am

Thu Nov 26, 3:04am

Thu Nov 26, 2:04am

Thu Nov 26, 1:04am

Thu Nov 26, 12:04am

Wed Nov 25, 11:04pm

Wed Nov 25, 10:04pm

Wed Nov 25, 9:04pm

Wed Nov 25, 8:04pm

Wed Nov 25, 7:04pm

Wed Nov 25, 6:04pm

Wed Nov 25, 5:04pm

Wed Nov 25, 4:04pm

Wed Nov 25, 3:05pm

Wed Nov 25, 2:04pm

Wed Nov 25, 1:04pm

Wed Nov 25, 12:05pm

Wed Nov 25, 11:04am

Wed Nov 25, 10:04am

Wed Nov 25, 9:04am

Wed Nov 25, 8:04am

Wed Nov 25, 7:04am

Wed Nov 25, 6:04am

Wed Nov 25, 5:04am

Wed Nov 25, 4:04am

Wed Nov 25, 3:04am

Wed Nov 25, 2:04am

Wed Nov 25, 1:04am

Wed Nov 25, 12:04am

Tue Nov 24, 11:04pm

Tue Nov 24, 10:04pm

Tue Nov 24, 9:04pm

Tue Nov 24, 8:04pm

Tue Nov 24, 7:04pm

Tue Nov 24, 6:04pm

Tue Nov 24, 5:04pm

Tue Nov 24, 4:05pm

Tue Nov 24, 3:05pm

Tue Nov 24, 2:05pm

Tue Nov 24, 1:05pm

Tue Nov 24, 12:04pm

Tue Nov 24, 11:04am

Tue Nov 24, 10:04am

Tue Nov 24, 9:04am

Tue Nov 24, 8:04am

Tue Nov 24, 7:04am

Tue Nov 24, 6:04am

Tue Nov 24, 5:04am

Tue Nov 24, 4:05am

Tue Nov 24, 3:04am

Tue Nov 24, 2:04am

Tue Nov 24, 1:04am

Tue Nov 24, 12:05am

Mon Nov 23, 11:04pm

Mon Nov 23, 10:04pm

Mon Nov 23, 9:04pm

Mon Nov 23, 8:04pm

Mon Nov 23, 7:04pm

Mon Nov 23, 6:04pm

Mon Nov 23, 5:04pm

Mon Nov 23, 4:04pm

Mon Nov 23, 3:04pm

Mon Nov 23, 2:04pm

Mon Nov 23, 1:04pm

Mon Nov 23, 12:04pm

Mon Nov 23, 11:04am

Mon Nov 23, 10:04am

Mon Nov 23, 9:04am

Mon Nov 23, 8:05am

Mon Nov 23, 7:04am

Mon Nov 23, 6:04am

Mon Nov 23, 5:04am

Mon Nov 23, 4:04am

Mon Nov 23, 3:04am

Mon Nov 23, 2:04am

Mon Nov 23, 1:04am

Mon Nov 23, 12:05am

Sun Nov 22, 11:04pm

Sun Nov 22, 10:04pm

Sun Nov 22, 9:04pm

Sun Nov 22, 8:05pm

Sun Nov 22, 7:04pm

Sun Nov 22, 6:04pm

Sun Nov 22, 5:04pm

Sun Nov 22, 4:04pm

Sun Nov 22, 3:04pm

Sun Nov 22, 2:04pm

Sun Nov 22, 1:05pm

Sun Nov 22, 12:04pm

Sun Nov 22, 11:04am

Sun Nov 22, 10:05am

Sun Nov 22, 9:04am

Sun Nov 22, 8:04am

Sun Nov 22, 7:04am

Sun Nov 22, 6:04am

Sun Nov 22, 5:04am

Sun Nov 22, 4:04am

Sun Nov 22, 3:04am

Sun Nov 22, 2:04am

Sun Nov 22, 12:04am

Sat Nov 21, 11:04pm

Sat Nov 21, 10:04pm

Sat Nov 21, 9:04pm

Sat Nov 21, 8:05pm

Sat Nov 21, 7:04pm

Sat Nov 21, 6:04pm

Sat Nov 21, 5:04pm

Sat Nov 21, 4:05pm

Sat Nov 21, 3:04pm

Sat Nov 21, 2:04pm

Sat Nov 21, 1:05pm

Sat Nov 21, 12:04pm

Sat Nov 21, 11:04am

Sat Nov 21, 10:04am

Sat Nov 21, 9:04am

Sat Nov 21, 8:04am

Sat Nov 21, 7:04am

Sat Nov 21, 6:04am

Sat Nov 21, 5:04am

Sat Nov 21, 4:04am

Sat Nov 21, 3:04am

Sat Nov 21, 2:04am

Sat Nov 21, 1:04am

Sat Nov 21, 12:04am

Fri Nov 20, 11:04pm

Fri Nov 20, 10:04pm

Fri Nov 20, 9:04pm

Fri Nov 20, 8:04pm

Fri Nov 20, 7:04pm

Fri Nov 20, 6:04pm

Fri Nov 20, 5:04pm

Fri Nov 20, 4:05pm

Fri Nov 20, 3:05pm

Fri Nov 20, 2:04pm

Fri Nov 20, 1:04pm

Fri Nov 20, 12:04pm

Fri Nov 20, 11:04am

Fri Nov 20, 10:04am

Fri Nov 20, 9:04am

Fri Nov 20, 8:04am

Fri Nov 20, 7:04am

Fri Nov 20, 6:04am

Fri Nov 20, 5:04am

Fri Nov 20, 4:04am

Meta data:

ID: 21a8579f-ea61-4a37-9e38-da6ebbcd2a68
Link: https://api.weather.gov/products/21a8579f-ea61-4a37-9e38-da6ebbcd2a68